Tracking 20369 objects as of 17-Feb-2020
HD Live streaming from Space Station
objects crossing your sky now

ATLAS AGENA B DEB

Track ATLAS AGENA B DEB now!
10-day predictions


NORAD ID: 3121
Int'l Code: 1963-030F
Perigee: 3,673.8 km
Apogee: 3,742.3 km
Inclination: 88.4 °
Period: 167.8 minutes
Semi major axis: 10079 km
RCS: 0.1321 m2 (medium)
Launch date: July 19, 1963
Source: United States (US)
Launch site: AIR FORCE WESTERN TEST RANGE (AFWTR)

Note: This is SATELLITE DEBRIS
aabbcc
Your satellite tracking list
Your tracking list is empty




NASA's NSSDC Master Catalog

Two Line Element Set (TLE):
1  3121U 63030F   20034.34054839  .00000000  00000-0 -11506-2 0  9990
2  3121  88.4230 339.3898 0033985 232.8647 126.9096  8.57967353  7572
Source of the keplerian elements: AFSPC